| time (UTC) | temp F | wind direction | speed MPH | gust MPH | rain 1hr in | rain 24hr in | rain mn in | humidity % | barometer mb |
| 20260503053502 | 51 | 170 | 1.0 | 7.0 | 0.00 | 0.00 | 0.00 | 72 | 1015.6 |
| 20260503053008 | 51 | 182 | 2.0 | 5.0 | 0.00 | 0.00 | 0.00 | 72 | 1015.6 |
| 20260503052503 | 51 | 112 | 1.0 | 5.0 | 0.00 | 0.00 | 0.00 | 72 | 1015.5 |
| 20260503052004 | 51 | 232 | 1.0 | 6.0 | 0.00 | 0.00 | 0.00 | 72 | 1015.4 |
| 20260503051512 | 51 | 142 | 2.0 | 6.0 | 0.00 | 0.00 | 0.00 | 72 | 1015.4 |
| 20260503051006 | 50 | 188 | 1.0 | 5.0 | 0.00 | 0.00 | 0.00 | 72 | 1015.4 |
| 20260503050506 | 50 | 136 | 1.0 | 5.0 | 0.00 | 0.00 | 0.00 | 72 | 1015.3 |
| 20260503050020 | 50 | 304 | 1.0 | 6.0 | 0.00 | 0.00 | 0.00 | 73 | 1015.3 |
| 20260503045511 | 50 | 356 | 2.0 | 8.0 | 0.00 | 0.00 | 0.00 | 72 | 1015.3 |
| 20260503045008 | 50 | 114 | 2.0 | 8.0 | 0.00 | 0.00 | 0.00 | 72 | 1015.3 |
| 20260503044522 | 50 | 330 | 1.0 | 5.0 | 0.00 | 0.00 | 0.00 | 73 | 1015.3 |
| 20260503044008 | 50 | 152 | 2.0 | 5.0 | 0.00 | 0.00 | 0.00 | 73 | 1015.1 |
| 20260503043509 | 51 | 292 | 1.0 | 5.0 | 0.00 | 0.00 | 0.00 | 72 | 1015.2 |
| 20260503043027 | 51 | 31 | 1.0 | 6.0 | 0.00 | 0.00 | 0.00 | 69 | 1015.0 |
| 20260503042505 | 51 | 125 | 2.0 | 6.0 | 0.00 | 0.00 | 0.00 | 69 | 1015.0 |
| 20260503042007 | 51 | 162 | 2.0 | 6.0 | 0.00 | 0.00 | 0.00 | 70 | 1015.0 |
| 20260503041508 | 51 | 297 | 1.0 | 4.0 | 0.00 | 0.00 | 0.00 | 70 | 1015.0 |
| 20260503041002 | 51 | 134 | 1.0 | 5.0 | 0.00 | 0.00 | 0.00 | 71 | 1015.0 |
| 20260503040511 | 51 | 133 | 1.0 | 8.0 | 0.00 | 0.00 | 0.00 | 71 | 1015.0 |
| 20260503040016 | 51 | 243 | 2.0 | 8.0 | 0.00 | 0.00 | 0.00 | 70 | 1015.1 |
| 20260503035507 | 51 | 350 | 1.0 | 6.0 | 0.00 | 0.00 | 0.00 | 70 | 1015.1 |
| 20260503035009 | 51 | 89 | 2.0 | 10.0 | 0.00 | 0.00 | 0.00 | 70 | 1015.1 |
| 20260503034520 | 51 | 124 | 3.0 | 10.0 | 0.00 | 0.00 | 0.00 | 69 | 1015.0 |
| 20260503034010 | 51 | 134 | 2.0 | 6.0 | 0.00 | 0.00 | 0.00 | 69 | 1015.1 |
| 20260503033506 | 51 | 149 | 2.0 | 6.0 | 0.00 | 0.00 | 0.00 | 69 | 1015.1 |
| 20260503033027 | 51 | 173 | 2.0 | 5.0 | 0.00 | 0.00 | 0.00 | 69 | 1015.2 |
| 20260503032510 | 51 | 128 | 2.0 | 6.0 | 0.00 | 0.00 | 0.00 | 69 | 1015.3 |
| 20260503032009 | 51 | 314 | 2.0 | 6.0 | 0.00 | 0.00 | 0.00 | 68 | 1015.4 |
| 20260503031527 | 52 | 139 | 1.0 | 7.0 | 0.00 | 0.00 | 0.00 | 67 | 1015.4 |
| 20260503031007 | 52 | 158 | 2.0 | 7.0 | 0.00 | 0.00 | 0.00 | 66 | 1015.5 |
| 20260503030507 | 52 | 321 | 2.0 | 6.0 | 0.00 | 0.00 | 0.00 | 66 | 1015.6 |
| 20260503030013 | 52 | 143 | 2.0 | 6.0 | 0.00 | 0.00 | 0.00 | 65 | 1015.5 |
| 20260503025509 | 52 | 160 | 1.0 | 6.0 | 0.00 | 0.00 | 0.00 | 65 | 1015.5 |
| 20260503025008 | 52 | 21 | 2.0 | 9.0 | 0.00 | 0.00 | 0.00 | 65 | 1015.5 |
| 20260503024516 | 52 | 314 | 2.0 | 9.0 | 0.00 | 0.00 | 0.00 | 65 | 1015.6 |
| 20260503024009 | 52 | 285 | 1.0 | 7.0 | 0.00 | 0.00 | 0.00 | 64 | 1015.5 |
| 20260503023509 | 52 | 84 | 2.0 | 7.0 | 0.00 | 0.00 | 0.00 | 64 | 1015.5 |
| 20260503023022 | 52 | 281 | 2.0 | 5.0 | 0.00 | 0.00 | 0.00 | 64 | 1015.4 |
| 20260503022505 | 52 | 150 | 1.0 | 4.0 | 0.00 | 0.00 | 0.00 | 64 | 1015.5 |
| 20260503022011 | 52 | 193 | 1.0 | 5.0 | 0.00 | 0.00 | 0.00 | 64 | 1015.4 |
| 20260503021523 | 52 | 62 | 1.0 | 6.0 | 0.00 | 0.00 | 0.00 | 63 | 1015.5 |
| 20260503021006 | 52 | 133 | 2.0 | 6.0 | 0.00 | 0.00 | 0.00 | 63 | 1015.5 |
| 20260503020509 | 52 | 154 | 1.0 | 6.0 | 0.00 | 0.00 | 0.00 | 63 | 1015.6 |
| 20260503020027 | 52 | 303 | 1.0 | 6.0 | 0.00 | 0.00 | 0.00 | 63 | 1015.6 |
| 20260503015506 | 53 | 49 | 2.0 | 7.0 | 0.00 | 0.00 | 0.00 | 63 | 1015.6 |
| 20260503015010 | 53 | 304 | 2.0 | 7.0 | 0.00 | 0.00 | 0.00 | 63 | 1015.6 |
| 20260503014513 | 53 | 239 | 1.0 | 5.0 | 0.00 | 0.00 | 0.00 | 63 | 1015.7 |
| 20260503014007 | 53 | 173 | 1.0 | 5.0 | 0.00 | 0.00 | 0.00 | 63 | 1015.7 |
| 20260503013504 | 53 | 102 | 1.0 | 5.0 | 0.00 | 0.00 | 0.00 | 63 | 1015.6 |
| 20260503013021 | 53 | 158 | 1.0 | 5.0 | 0.00 | 0.00 | 0.00 | 62 | 1015.7 |
| 20260503012507 | 53 | 267 | 1.0 | 5.0 | 0.00 | 0.00 | 0.00 | 62 | 1015.7 |
| 20260503012007 | 53 | 280 | 1.0 | 5.0 | 0.00 | 0.00 | 0.00 | 62 | 1015.7 |
| 20260503011524 | 53 | 300 | 1.0 | 5.0 | 0.00 | 0.00 | 0.00 | 61 | 1015.8 |
| 20260503011006 | 53 | 271 | 0.0 | 6.0 | 0.00 | 0.00 | 0.00 | 61 | 1015.7 |
| 20260503010508 | 53 | 233 | 1.0 | 7.0 | 0.00 | 0.00 | 0.00 | 61 | 1015.7 |
| 20260503010026 | 53 | 28 | 1.0 | 7.0 | 0.00 | 0.00 | 0.00 | 61 | 1015.7 |
| 20260503005511 | 53 | 250 | 2.0 | 5.0 | 0.00 | 0.00 | 0.00 | 61 | 1015.9 |
| 20260503005012 | 53 | 300 | 1.0 | 4.0 | 0.00 | 0.00 | 0.00 | 60 | 1015.9 |
| 20260503004530 | 54 | 162 | 1.0 | 5.0 | 0.00 | 0.00 | 0.00 | 60 | 1015.9 |
| 20260503004008 | 54 | 112 | 1.0 | 5.0 | 0.00 | 0.00 | 0.00 | 60 | 1016.0 |
| 20260503003510 | 54 | 83 | 1.0 | 4.0 | 0.00 | 0.00 | 0.00 | 60 | 1015.9 |
| 20260503003043 | 54 | 318 | 1.0 | 6.0 | 0.00 | 0.00 | 0.00 | 59 | 1016.0 |
| 20260503002504 | 54 | 149 | 1.0 | 6.0 | 0.00 | 0.00 | 0.00 | 59 | 1016.0 |
| 20260503002007 | 54 | 257 | 1.0 | 7.0 | 0.00 | 0.00 | 0.00 | 59 | 1016.0 |
| 20260503001541 | 54 | 91 | 1.0 | 7.0 | 0.00 | 0.00 | 0.00 | 58 | 1016.0 |
| 20260503001005 | 54 | 340 | 1.0 | 6.0 | 0.00 | 0.00 | 0.00 | 58 | 1016.0 |
| 20260503001003 | 54 | 313 | 1.0 | 6.0 | 0.00 | 0.00 | 0.00 | 58 | 1016.0 |
| 20260503000503 | 54 | 161 | 1.0 | 5.0 | 0.00 | 0.00 | 0.00 | 58 | 1016.0 |
| 20260503000005 | 54 | 148 | 1.0 | 6.0 | 0.00 | 0.00 | 0.00 | 57 | 1016.0 |
| 20260502235503 | 54 | 126 | 1.0 | 6.0 | 0.00 | 0.00 | 0.00 | 57 | 1016.1 |
| 20260502235003 | 54 | 61 | 2.0 | 6.0 | 0.00 | 0.00 | 0.00 | 57 | 1016.1 |
| 20260502234506 | 54 | 148 | 1.0 | 8.0 | 0.00 | 0.00 | 0.00 | 57 | 1016.2 |
| 20260502234003 | 54 | 262 | 3.0 | 9.0 | 0.00 | 0.00 | 0.00 | 56 | 1016.2 |
| 20260502233504 | 54 | 145 | 4.0 | 9.0 | 0.00 | 0.00 | 0.00 | 57 | 1016.2 |
| 20260502233020 | 54 | 131 | 3.0 | 9.0 | 0.00 | 0.00 | 0.00 | 56 | 1016.3 |
| 20260502232504 | 54 | 360 | 2.0 | 10.0 | 0.00 | 0.00 | 0.00 | 57 | 1016.5 |
| 20260502232006 | 54 | 112 | 1.0 | 10.0 | 0.00 | 0.00 | 0.00 | 57 | 1016.6 |
| 20260502231515 | 54 | 129 | 1.0 | 7.0 | 0.00 | 0.00 | 0.00 | 56 | 1016.6 |
| 20260502231008 | 54 | 68 | 2.0 | 7.0 | 0.00 | 0.00 | 0.00 | 56 | 1016.6 |
| 20260502230508 | 54 | 135 | 3.0 | 8.0 | 0.00 | 0.00 | 0.00 | 56 | 1016.6 |
| 20260502230022 | 54 | 191 | 2.0 | 8.0 | 0.00 | 0.00 | 0.00 | 57 | 1016.7 |
| 20260502225508 | 54 | 239 | 2.0 | 8.0 | 0.00 | 0.00 | 0.00 | 56 | 1016.8 |
| 20260502225005 | 54 | 32 | 2.0 | 8.0 | 0.00 | 0.00 | 0.00 | 56 | 1016.9 |
| 20260502224505 | 54 | 110 | 1.0 | 7.0 | 0.00 | 0.00 | 0.00 | 56 | 1016.9 |
| 20260502224004 | 54 | 136 | 3.0 | 8.0 | 0.00 | 0.00 | 0.00 | 56 | 1016.9 |
| 20260502223506 | 54 | 113 | 2.0 | 8.0 | 0.00 | 0.00 | 0.00 | 56 | 1016.9 |
| 20260502223014 | 54 | 184 | 3.0 | 7.0 | 0.00 | 0.00 | 0.00 | 56 | 1017.0 |
| 20260502222503 | 54 | 117 | 2.0 | 7.0 | 0.00 | 0.00 | 0.00 | 57 | 1017.0 |
| 20260502222004 | 55 | 124 | 3.0 | 8.0 | 0.00 | 0.00 | 0.00 | 57 | 1017.0 |
| 20260502221513 | 54 | 228 | 3.0 | 8.0 | 0.00 | 0.00 | 0.00 | 57 | 1017.0 |
| 20260502221004 | 54 | 122 | 4.0 | 8.0 | 0.00 | 0.00 | 0.00 | 57 | 1017.0 |
| 20260502220506 | 54 | 132 | 2.0 | 7.0 | 0.00 | 0.00 | 0.00 | 58 | 1017.0 |
| 20260502220020 | 54 | 141 | 2.0 | 7.0 | 0.00 | 0.00 | 0.00 | 58 | 1017.1 |
| 20260502215510 | 54 | 108 | 2.0 | 7.0 | 0.00 | 0.00 | 0.00 | 58 | 1017.2 |
| 20260502215007 | 54 | 125 | 3.0 | 7.0 | 0.00 | 0.00 | 0.00 | 58 | 1017.1 |
| 20260502214523 | 54 | 330 | 2.0 | 7.0 | 0.00 | 0.00 | 0.00 | 58 | 1017.2 |
| 20260502214009 | 54 | 335 | 2.0 | 9.0 | 0.00 | 0.00 | 0.00 | 58 | 1017.2 |
| 20260502213508 | 54 | 182 | 2.0 | 9.0 | 0.00 | 0.00 | 0.00 | 58 | 1017.2 |
| 20260502213004 | 54 | 72 | 2.0 | 7.0 | 0.00 | 0.00 | 0.00 | 58 | 1017.2 |
| 20260502212504 | 54 | 147 | 2.0 | 8.0 | 0.00 | 0.00 | 0.00 | 59 | 1017.2 |
| 20260502212007 | 55 | 159 | 2.0 | 11.0 | 0.00 | 0.00 | 0.00 | 58 | 1017.1 |
| 20260502211516 | 55 | 121 | 3.0 | 11.0 | 0.00 | 0.00 | 0.00 | 58 | 1017.1 |
| 20260502211003 | 55 | 156 | 4.0 | 9.0 | 0.00 | 0.00 | 0.00 | 58 | 1017.1 |
| 20260502210510 | 55 | 89 | 3.0 | 8.0 | 0.00 | 0.00 | 0.00 | 58 | 1017.1 |
| 20260502210015 | 55 | 183 | 4.0 | 10.0 | 0.00 | 0.00 | 0.00 | 58 | 1017.0 |
| 20260502205506 | 55 | 320 | 3.0 | 10.0 | 0.00 | 0.00 | 0.00 | 59 | 1017.1 |
| 20260502205007 | 54 | 204 | 3.0 | 7.0 | 0.00 | 0.00 | 0.00 | 59 | 1017.1 |
| 20260502204518 | 55 | 52 | 1.0 | 5.0 | 0.00 | 0.00 | 0.00 | 59 | 1017.2 |
| 20260502204009 | 55 | 105 | 0.0 | 5.0 | 0.00 | 0.00 | 0.00 | 59 | 1017.2 |
| 20260502203507 | 55 | 304 | 1.0 | 4.0 | 0.00 | 0.00 | 0.00 | 59 | 1017.3 |
| 20260502203026 | 55 | 169 | 1.0 | 5.0 | 0.00 | 0.00 | 0.00 | 59 | 1017.2 |
| 20260502202510 | 55 | 49 | 2.0 | 5.0 | 0.00 | 0.00 | 0.00 | 58 | 1017.4 |
| 20260502202010 | 55 | 299 | 1.0 | 5.0 | 0.00 | 0.00 | 0.00 | 58 | 1017.4 |
| 20260502201527 | 55 | 162 | 1.0 | 5.0 | 0.00 | 0.00 | 0.00 | 58 | 1017.4 |
| 20260502201006 | 55 | 340 | 1.0 | 5.0 | 0.00 | 0.00 | 0.00 | 58 | 1017.4 |
| 20260502200503 | 55 | 96 | 1.0 | 6.0 | 0.00 | 0.00 | 0.00 | 58 | 1017.4 |
| 20260502200011 | 55 | 171 | 2.0 | 7.0 | 0.00 | 0.00 | 0.00 | 57 | 1017.3 |
| 20260502195502 | 55 | 49 | 2.0 | 7.0 | 0.00 | 0.00 | 0.00 | 57 | 1017.2 |
| 20260502195003 | 56 | 171 | 3.0 | 9.0 | 0.00 | 0.00 | 0.00 | 57 | 1017.2 |
| 20260502194515 | 56 | 169 | 3.0 | 9.0 | 0.00 | 0.00 | 0.00 | 57 | 1017.2 |
| 20260502194008 | 56 | 159 | 2.0 | 9.0 | 0.00 | 0.00 | 0.00 | 57 | 1017.2 |
| 20260502193507 | 56 | 158 | 2.0 | 6.0 | 0.00 | 0.00 | 0.00 | 56 | 1017.1 |
| 20260502193020 | 56 | 178 | 3.0 | 11.0 | 0.00 | 0.00 | 0.00 | 56 | 1017.2 |
| 20260502192506 | 56 | 122 | 5.0 | 12.0 | 0.00 | 0.00 | 0.00 | 55 | 1017.2 |
| 20260502192008 | 56 | 172 | 5.0 | 12.0 | 0.00 | 0.00 | 0.00 | 55 | 1017.2 |
| 20260502191523 | 56 | 56 | 4.0 | 13.0 | 0.00 | 0.00 | 0.00 | 55 | 1017.2 |
| 20260502191009 | 57 | 137 | 5.0 | 13.0 | 0.00 | 0.00 | 0.00 | 54 | 1017.2 |
| 20260502190510 | 57 | 89 | 5.0 | 13.0 | 0.00 | 0.00 | 0.00 | 55 | 1017.2 |
| 20260502190027 | 57 | 155 | 3.0 | 8.0 | 0.00 | 0.00 | 0.00 | 55 | 1017.3 |
| 20260502185512 | 57 | 115 | 3.0 | 8.0 | 0.00 | 0.00 | 0.00 | 55 | 1017.3 |
| 20260502185003 | 57 | 125 | 4.0 | 10.0 | 0.00 | 0.00 | 0.00 | 54 | 1017.2 |
| 20260502184510 | 57 | 121 | 3.0 | 10.0 | 0.00 | 0.00 | 0.00 | 54 | 1017.2 |
| 20260502184005 | 57 | 129 | 5.0 | 11.0 | 0.00 | 0.00 | 0.00 | 53 | 1017.2 |
| 20260502183507 | 58 | 220 | 3.0 | 11.0 | 0.00 | 0.00 | 0.00 | 53 | 1017.2 |
| 20260502183016 | 58 | 162 | 3.0 | 10.0 | 0.00 | 0.00 | 0.00 | 52 | 1017.2 |
| 20260502182509 | 58 | 122 | 2.0 | 11.0 | 0.00 | 0.00 | 0.00 | 51 | 1017.1 |
| 20260502182006 | 59 | 117 | 3.0 | 11.0 | 0.00 | 0.00 | 0.00 | 51 | 1017.3 |
| 20260502181531 | 59 | 229 | 3.0 | 9.0 | 0.00 | 0.00 | 0.00 | 51 | 1017.2 |
| 20260502181010 | 59 | 50 | 3.0 | 8.0 | 0.00 | 0.00 | 0.00 | 50 | 1017.3 |
| 20260502180512 | 60 | 132 | 3.0 | 8.0 | 0.00 | 0.00 | 0.00 | 49 | 1017.2 |
| 20260502170510 | 62 | 115 | 5.0 | 11.0 | 0.00 | 0.00 | 0.00 | 45 | 1017.3 |
| 20260502164003 | 62 | 196 | 4.0 | 9.0 | 0.00 | 0.00 | 0.00 | 44 | 1017.5 |
| 20260502163503 | 62 | 114 | 3.0 | 8.0 | 0.00 | 0.00 | 0.00 | 45 | 1017.5 |
| 20260502163012 | 62 | 129 | 3.0 | 12.0 | 0.00 | 0.00 | 0.00 | 45 | 1017.5 |
| 20260502162507 | 62 | 174 | 5.0 | 13.0 | 0.00 | 0.00 | 0.00 | 46 | 1017.6 |
| 20260502162010 | 62 | 193 | 5.0 | 13.0 | 0.00 | 0.00 | 0.00 | 44 | 1017.7 |
| 20260502161513 | 62 | 144 | 5.0 | 13.0 | 0.00 | 0.00 | 0.00 | 46 | 1017.7 |
| 20260502161009 | 62 | 122 | 5.0 | 14.0 | 0.00 | 0.00 | 0.00 | 48 | 1017.8 |
| 20260502160506 | 62 | 131 | 5.0 | 18.0 | 0.00 | 0.00 | 0.00 | 47 | 1017.9 |
| 20260502152006 | 61 | 99 | 3.0 | 10.0 | 0.00 | 0.00 | 0.00 | 48 | 1018.6 |
| 20260502151510 | 61 | 108 | 6.0 | 10.0 | 0.00 | 0.00 | 0.00 | 47 | 1018.7 |
| 20260502151005 | 61 | 108 | 3.0 | 10.0 | 0.00 | 0.00 | 0.00 | 49 | 1018.7 |
| 20260502150506 | 61 | 136 | 5.0 | 10.0 | 0.00 | 0.00 | 0.00 | 50 | 1018.8 |
| 20260502130503 | 65 | 153 | 3.0 | 12.0 | 0.00 | 0.00 | 0.00 | 45 | 1019.7 |
| 20260502123510 | 64 | 113 | 5.0 | 13.0 | 0.00 | 0.00 | 0.00 | 45 | 1019.9 |
| 20260502123018 | 64 | 141 | 3.0 | 13.0 | 0.00 | 0.00 | 0.00 | 47 | 1019.8 |
| 20260502122507 | 64 | 153 | 3.0 | 13.0 | 0.00 | 0.00 | 0.00 | 46 | 1019.9 |
| 20260502122009 | 64 | 150 | 2.0 | 8.0 | 0.00 | 0.00 | 0.00 | 46 | 1019.9 |
| 20260502121522 | 64 | 123 | 4.0 | 9.0 | 0.00 | 0.00 | 0.00 | 46 | 1019.9 |
| 20260502121008 | 64 | 111 | 2.0 | 12.0 | 0.00 | 0.00 | 0.00 | 46 | 1019.9 |
| 20260502120509 | 64 | 96 | 5.0 | 12.0 | 0.00 | 0.00 | 0.00 | 46 | 1020.1 |
| 20260502115503 | 64 | 158 | 3.0 | 8.0 | 0.00 | 0.00 | 0.00 | 46 | 1020.1 |
| 20260502115003 | 64 | 157 | 2.0 | 12.0 | 0.00 | 0.00 | 0.00 | 43 | 1020.2 |
| 20260502114513 | 64 | 6 | 4.0 | 13.0 | 0.00 | 0.00 | 0.00 | 45 | 1020.3 |
| 20260502114003 | 65 | 138 | 6.0 | 13.0 | 0.00 | 0.00 | 0.00 | 42 | 1020.1 |
| 20260502113503 | 65 | 116 | 6.0 | 12.0 | 0.00 | 0.00 | 0.00 | 43 | 1020.2 |
| 20260502113016 | 65 | 163 | 3.0 | 15.0 | 0.00 | 0.00 | 0.00 | 43 | 1020.1 |
| 20260502112503 | 65 | 142 | 6.0 | 15.0 | 0.00 | 0.00 | 0.00 | 42 | 1020.2 |
| 20260502112012 | 66 | 165 | 3.0 | 12.0 | 0.00 | 0.00 | 0.00 | 42 | 1020.5 |
| 20260502111520 | 64 | 109 | 5.0 | 12.0 | 0.00 | 0.00 | 0.00 | 45 | 1020.3 |
| 20260502111007 | 63 | 187 | 4.0 | 10.0 | 0.00 | 0.00 | 0.00 | 43 | 1020.4 |
| 20260502110508 | 63 | 127 | 4.0 | 13.0 | 0.00 | 0.00 | 0.00 | 45 | 1020.4 |
| 20260502110025 | 63 | 124 | 5.0 | 13.0 | 0.00 | 0.00 | 0.00 | 42 | 1020.5 |
| 20260502105515 | 63 | 144 | 4.0 | 10.0 | 0.00 | 0.00 | 0.00 | 42 | 1020.5 |
| 20260502105011 | 63 | 231 | 4.0 | 12.0 | 0.00 | 0.00 | 0.00 | 42 | 1020.5 |
| 20260502104534 | 63 | 39 | 6.0 | 14.0 | 0.00 | 0.00 | 0.00 | 41 | 1020.5 |
| 20260502104003 | 63 | 89 | 7.0 | 14.0 | 0.00 | 0.00 | 0.00 | 40 | 1020.6 |
| 20260502103504 | 63 | 302 | 3.0 | 10.0 | 0.00 | 0.00 | 0.00 | 42 | 1020.7 |
| 20260502103013 | 62 | 278 | 3.0 | 11.0 | 0.00 | 0.00 | 0.00 | 41 | 1020.9 |
| 20260502102507 | 62 | 240 | 4.0 | 11.0 | 0.00 | 0.00 | 0.00 | 40 | 1020.7 |
| 20260502102007 | 62 | 116 | 5.0 | 11.0 | 0.00 | 0.00 | 0.00 | 40 | 1020.8 |
| 20260502101514 | 62 | 65 | 5.0 | 11.0 | 0.00 | 0.00 | 0.00 | 39 | 1020.8 |
| 20260502101007 | 62 | 98 | 4.0 | 9.0 | 0.00 | 0.00 | 0.00 | 41 | 1021.0 |
| 20260502100506 | 62 | 287 | 2.0 | 11.0 | 0.00 | 0.00 | 0.00 | 43 | 1021.0 |
| 20260502091514 | 61 | 359 | 3.0 | 10.0 | 0.00 | 0.00 | 0.00 | 38 | 1021.4 |
| 20260502091006 | 61 | 127 | 3.0 | 16.0 | 0.00 | 0.00 | 0.00 | 38 | 1021.5 |
| 20260502090506 | 61 | 169 | 2.0 | 16.0 | 0.00 | 0.00 | 0.00 | 36 | 1021.3 |
| 20260502071504 | 58 | 262 | 1.0 | 7.0 | 0.00 | 0.00 | 0.00 | 41 | 1021.3 |
| 20260502071004 | 58 | 105 | 1.0 | 6.0 | 0.00 | 0.00 | 0.00 | 40 | 1021.3 |
| 20260502070504 | 57 | 111 | 1.0 | 7.0 | 0.00 | 0.00 | 0.00 | 40 | 1021.2 |
| 20260502070003 | 57 | 318 | 2.0 | 7.0 | 0.00 | 0.00 | 0.00 | 39 | 1021.1 |
| 20260502065502 | 57 | 168 | 1.0 | 6.0 | 0.00 | 0.00 | 0.00 | 39 | 1021.2 |
| 20260502065003 | 58 | 327 | 2.0 | 6.0 | 0.00 | 0.00 | 0.00 | 38 | 1021.1 |
| 20260502064505 | 58 | 89 | 1.0 | 5.0 | 0.00 | 0.00 | 0.00 | 37 | 1021.1 |
| 20260502064002 | 58 | 295 | 1.0 | 5.0 | 0.00 | 0.00 | 0.00 | 37 | 1021.2 |
| 20260502063502 | 57 | 353 | 1.0 | 6.0 | 0.00 | 0.00 | 0.00 | 36 | 1021.3 |
| 20260502063007 | 57 | 49 | 1.0 | 6.0 | 0.00 | 0.00 | 0.00 | 36 | 1021.3 |
| 20260502062503 | 57 | 180 | 1.0 | 5.0 | 0.00 | 0.00 | 0.00 | 34 | 1021.2 |
| 20260502062006 | 57 | 210 | 1.0 | 4.0 | 0.00 | 0.00 | 0.00 | 34 | 1021.2 |
| 20260502061504 | 57 | 354 | 1.0 | 5.0 | 0.00 | 0.00 | 0.00 | 33 | 1021.2 |
| 20260502061004 | 57 | 288 | 1.0 | 5.0 | 0.00 | 0.00 | 0.00 | 33 | 1021.1 |
| 20260502060503 | 56 | 283 | 1.0 | 5.0 | 0.00 | 0.00 | 0.00 | 36 | 1021.1 |
| 20260502060005 | 56 | 285 | 1.0 | 5.0 | 0.00 | 0.00 | 0.00 | 35 | 1021.1 |
| 20260502055503 | 56 | 262 | 1.0 | 5.0 | 0.00 | 0.00 | 0.00 | 36 | 1021.0 |
| 20260502055003 | 55 | 255 | 1.0 | 5.0 | 0.00 | 0.00 | 0.00 | 34 | 1021.0 |
| 20260502054507 | 55 | 166 | 1.0 | 4.0 | 0.00 | 0.00 | 0.00 | 37 | 1021.0 |
| 20260502054002 | 56 | 241 | 0.0 | 4.0 | 0.00 | 0.00 | 0.00 | 34 | 1020.9 |